OPS 4682 DEB, 38382

Orbit data source: Space-Track

OPS 4682 DEB, 38382 is space debris in LEO originally from a launch on Sat, 03 Apr 1965 UTC launched from the Air Force Western Test Range (AFWTR). Debris objects in space refer to the collection of defunct objects orbiting the Earth. Examples of debris include non-operational satellites, rocket bodies, and fragments generated from explosions, collisions, or faulty payload assembly.

Loading next visibility...
Identifier
38382, 1965-027CK
Orbit
LEO
Country
Flag of USUS
Related business
Manufacturer
Unknown
Mission
Spacecraft
Bus & Motor
Unknown
Mass
Unknown
Launch date (UTC)
1965-04-03 (61 years ago)
Launch vehicle
Unknown
Launch site
Air Force Western Test Range (AFWTR)
Object type
Payload
Rocket body
Debris
Shape & HBR
Unknown shape, 0.1 m
Radar Cross Section
Small (<0.1 m²)

Expand to show TLE details & history
Last TLE update: 19 hours ago

TLE from 19 hours ago
0 OPS 4682 DEB
1 38382U 65027CK  26100.01768213  .00000372  00000-0  12693-2 0  9996
2 38382  90.2547   7.4055 0027026 348.5992  11.4513 12.96761282 53592
Epoch: 2026-04-10T00:25Z
TLE epoch observation values (Epoch: 2026-04-10T00:25:27.736Z)
Latitude
0.00002°
Longitude
162.78256°
Altitude
1,257.409 km
Speed
7.236 km/s
True Right ascension
00h 29m 37s
True Declination
0° 00' 00"
Sunlit
Object was in daylight at epoch
Visualization orbit readout
Latitude
Unknown
Longitude
Unknown
Altitude
Unknown
Speed
Unknown
Apparent Right ascension
Unknown
Apparent Declination
Unknown
Sunlit
N/A
Visualization observer readout
Local Sidereal Time
01:42:48
Azimuth
Unknown
Elevation
Unknown
Doppler factor
Unknown
Orbital elements
Apogee altitude
1,292.609 km
Perigee altitude
1,251.259 km
Semi-major axis
7,650.071 km
Eccentricity
0.0027
Inclination
90.2547°
RAAN
7.4055°
Arg. of periapsis
348.5992°
True anomaly
11.51299°
Mean anomaly
11.4513°
Eccentric anomaly
11.48212°
Mean motion
3.24373 °/min
Orbital period
110.98 mins
BSTAR
0.0012693
Loading maneuver chart data...
Computing Atmospheric mass density...
Loading historical data...
Loading historical data...
Loading historical data...
Loading historical data...
Loading historical data...
Loading historical data...
Loading historical data...

Documentation

Showing up to 5 results
|